MACSAT 2 (M 2) 1 20608U 90043B 12034.19024846 .00000434 00000-0 60634-4 0 5547 2 20608 89.7366 50.7222 0095793 107.5168 253.6538 14.72572659164737 TUBSAT A 1 21577U 91050D 12034.88230567 .00000139 00000-0 59712-4 0 2833 2 21577 98.5920 350.5931 0007136 61.2360 298.9541 14.38715473 78475 S80/T 1 22078U 92052C 12033.48664545 -.00000037 00000-0 10000-3 0 1210 2 22078 66.0874 107.9603 0013979 230.4132 129.5644 12.86745567915290 HEALTHSAT 1 1 22827U 93061E 12034.55134874 .00000116 00000-0 61478-4 0 479 2 22827 98.5520 341.8377 0008168 285.1392 74.8886 14.30388696957648 TUBSAT B 1 22970U 94003B 12033.83701902 .00000051 00000-0 10000-3 0 8118 2 22970 82.5601 191.6317 0016679 11.1355 349.0133 13.16925815866427 CERISE 1 23606U 95033B 12034.84912948 .00001929 00000-0 22400-3 0 6609 2 23606 98.3519 210.9883 0005392 223.6836 136.3954 14.86655396894627 UPM/LBSAT 1 23607U 95033C 12033.84429987 .00000336 00000-0 57338-4 0 8911 2 23607 98.1864 144.7283 0007017 71.5406 288.6548 14.75376480890657 FAISAT 2V 1 24954U 97052B 12034.84010358 .00000087 00000-0 69264-4 0 3750 2 24954 82.9235 315.3715 0038892 310.1848 49.5903 13.79724063723278 MUBLCOM 1 25736U 99026B 12033.65827088 .00000468 00000-0 14385-3 0 5383 2 25736 97.7039 256.1516 0005744 349.9355 10.1716 14.45331501669480 RUBIN-3 & SL-8 R/B 1 27561U 02054C 12034.04353037 .00000354 00000-0 92737-4 0 5043 2 27561 97.9808 196.3445 0047989 133.7874 226.7301 14.54094855487124 APRIZESAT 2 1 28366U 04025A 12033.55136283 .00000061 00000-0 33517-4 0 1136 2 28366 98.2048 351.8989 0109221 162.1662 198.3391 14.35791699398020 SAUDICOMSAT 1 1 28369U 04025D 12034.04423101 .00000232 00000-0 68929-4 0 1632 2 28369 97.9607 37.8522 0033690 324.1401 35.7572 14.50944329402265 SAUDICOMSAT 2 1 28370U 04025E 12034.08454168 .00000193 00000-0 64682-4 0 1666 2 28370 98.0415 20.6104 0059392 23.0900 337.2971 14.46032078400915 APRIZESAT 1 1 28372U 04025G 12034.48045854 .00000191 00000-0 61635-4 0 1517 2 28372 97.9985 28.6422 0047181 351.8103 8.2316 14.48420230401639 NANOSAT-1 1 28493U 04049B 12034.03935038 .00000559 00000-0 99725-4 0 1508 2 28493 98.3774 30.7229 0005703 97.4200 262.7674 14.70974860382379 SAUDICOMSAT 7 1 31119U 07012C 12034.50490683 .00000391 00000-0 88724-4 0 4520 2 31119 97.8641 69.5743 0062860 119.9962 240.7500 14.59828983255721 SAUDICOMSAT 6 1 31121U 07012E 12034.00782136 .00000370 00000-0 89075-4 0 4533 2 31121 97.8696 60.3992 0079323 147.5938 213.0171 14.56677188255117 SAUDICOMSAT 5 1 31124U 07012H 12034.65958596 .00000405 00000-0 89121-4 0 4601 2 31124 97.8655 74.6090 0054354 106.6527 254.0633 14.61436757256029 SAUDICOMSAT 3 1 31125U 07012J 12034.52088808 .00000416 00000-0 88749-4 0 4728 2 31125 97.8687 79.1278 0046013 95.1411 265.5049 14.62990574256278 SAUDICOMSAT 4 1 31127U 07012L 12034.63672292 .00000385 00000-0 89803-4 0 4635 2 31127 97.8662 65.6044 0070820 131.9762 228.7475 14.58345951255489 APRIZESAT 4 1 35684U 09041D 12034.30166887 .00000234 00000-0 40813-4 0 7929 2 35684 98.0684 305.3578 0048760 290.9821 68.6189 14.76545523135515 APRIZESAT 3 1 35686U 09041F 12034.77964886 .00000251 00000-0 36410-4 0 7980 2 35686 98.0878 316.0341 0077626 263.9386 95.2978 14.83256313136188 AISSAT 1 1 36797U 10035C 12034.46370344 .00000764 00000-0 10490-3 0 6678 2 36797 98.0745 109.9992 0011144 253.9618 106.0364 14.81306762 84540